Temp_Advection
nan nan nan nan nan nan nan nan nan nan nan nan nan nan nan nan nan nan nan nan nan nan nan nan nan nan nan nan nan nan nan nan nan nan nan nan nan nan nan nan nan nan nan nan nan nan nan nan nan nan nan nan nan nan
nan -0 -0 -0 -0 -0 -0 -0 -0 -0 -0 -0 0 0 0 0 0 0 0 0 0 0 -0 0 -0 0 0 0 -0 0 -0 -0 -0 -1 0 0 -0 0 -0 -1 -0 0 -0 0 -0 -1 -0 -0 0 1 1 -0 -0 nan
nan 0 -0 -0 0 0 0 -0 -0 -0 0 0 0 -0 -0 0 0 0 0 0 0 -0 -0 -1 -0 0 0 0 0 0 -0 -0 -0 0 -1 -0 -0 0 -0 0 0 -0 0 0 -0 -1 -0 -0 -0 0 0 0 0 nan
nan 0 0 1 1 0 0 -0 -0 -0 -0 -0 0 0 0 0 0 0 0 0 0 0 -0 -1 -0 -0 0 0 0 -0 -0 0 0 1 1 0 -0 -0 0 0 0 -0 0 -0 -1 -1 -1 -1 -0 0 0 0 -0 nan
nan 0 0 0 0 0 0 -0 -0 0 0 0 0 0 0 0 0 0 0 0 -0 0 -0 -0 -1 0 0 0 0 0 0 0 1 2 0 -0 -0 -0 0 0 -0 -1 0 -0 -1 -1 0 0 0 -0 0 0 0 nan
nan 0 -0 0 0 0 0 -0 0 0 0 -0 0 0 0 0 0 0 -0 -1 -0 0 1 -0 -1 0 0 0 -0 -0 1 1 0 0 -0 -1 -0 0 0 -1 -1 0 1 0 0 -0 0 1 0 -0 -1 -0 0 nan
nan 0 0 0 0 -0 -0 0 0 0 0 0 0 0 0 0 0 0 -0 0 0 1 0 0 0 0 -0 -0 -0 0 0 0 0 0 0 -0 1 1 -0 -2 -2 -0 0 1 1 1 1 0 -0 -0 -0 -0 -0 nan
nan 0 0 -0 0 0 0 0 0 0 0 0 0 0 0 0 1 0 0 0 0 0 0 0 -0 -0 0 0 0 0 0 0 0 0 0 0 0 0 -0 -3 -0 -0 0 1 1 -0 -0 -0 0 0 0 0 -0 nan
nan 0 0 0 0 0 0 0 0 0 0 0 0 0 1 1 0 -0 0 0 1 0 0 0 0 0 0 0 0 0 0 -0 0 0 -0 0 0 -0 -1 -1 -0 0 0 0 0 -0 0 0 0 -0 -0 -0 0 nan
nan 0 0 0 0 0 0 0 0 0 0 0 0 0 0 0 0 0 0 0 1 1 1 0 0 0 0 0 0 0 0 -0 -0 -0 -0 0 -1 -2 -0 -0 -0 0 0 0 -0 -0 -0 -0 -0 -0 0 0 -0 nan
nan 0 0 0 0 0 0 0 0 0 1 0 0 0 0 0 0 0 0 0 0 0 0 0 -0 0 0 0 0 0 0 0 0 -0 0 0 -0 -1 -1 -0 -0 0 -0 -0 -0 0 -0 -0 -0 -0 -0 -0 0 nan
nan 0 0 0 0 0 0 0 0 0 0 0 -0 -0 0 0 0 0 0 0 0 0 -0 -0 -0 0 0 -0 -0 0 0 0 -0 0 0 0 -0 0 0 -0 -0 -0 -0 -0 -0 -0 -0 -0 -0 -0 -0 -0 -0 nan
nan 0 0 0 0 0 0 0 0 0 0 0 -0 0 0 0 0 0 0 0 0 -0 -0 -0 0 0 0 0 -0 0 0 0 -0 -0 0 0 -0 -0 -0 -0 -0 -0 -0 -0 -0 -0 -0 -0 -0 0 0 0 0 nan
nan 0 0 0 0 0 0 0 0 0 0 -0 -0 0 0 0 -0 0 0 0 0 -0 0 0 -0 0 0 0 0 0 0 0 -0 0 1 -0 -0 -0 -0 -0 -1 -1 -0 -0 -0 -0 -0 -0 -0 0 0 1 0 nan
nan 0 0 0 0 0 0 0 0 0 0 0 -0 0 -0 -0 -0 0 -0 0 0 0 0 -0 -0 -0 -0 -0 0 0 -0 -0 0 1 -0 1 -0 -0 -0 -0 -0 -0 -1 -1 -0 -0 -0 0 -0 0 0 1 1 nan
nan 0 0 0 0 0 0 0 0 0 0 0 0 -0 -0 0 -0 0 0 -0 0 0 0 -0 -0 -0 0 0 0 -0 0 0 0 -0 -0 -0 -0 -0 -0 -0 -0 -1 -1 -0 -1 -0 -1 -0 -0 -0 0 0 1 nan
nan 0 0 0 0 1 1 0 0 0 0 0 0 -0 -0 -0 -0 -0 -0 -0 0 0 0 0 -0 -0 -0 -0 -0 -0 -0 -1 -0 1 0 0 -0 -0 -0 -1 -0 -0 -0 -1 -1 -1 -0 -0 -0 -0 0 1 1 nan
nan 0 0 0 0 0 0 0 0 0 0 0 -0 -0 0 -0 -0 -0 0 0 0 0 0 -0 0 -0 0 -0 -0 -1 -1 1 -0 -0 -0 0 0 -0 -0 -0 -0 -0 -0 -0 -0 -0 -0 -0 -1 -0 0 0 0 nan
nan 0 0 0 0 0 0 0 0 0 0 -0 -0 0 0 0 0 0 0 0 0 0 0 0 0 -0 -1 -1 -1 -0 0 0 -0 -1 -1 -0 -0 -0 -0 -0 0 -0 0 0 -0 -0 -0 -0 -0 -1 0 0 -0 nan
nan 0 1 1 0 0 -0 0 0 0 0 0 -0 0 0 0 0 0 0 0 0 0 0 0 -1 -3 -1 -1 1 0 0 0 0 -0 -1 -0 0 -0 0 0 0 0 -0 -0 -0 -0 -0 -1 -0 -0 -0 -0 0 nan
nan 0 0 0 0 0 -0 -0 0 0 0 0 -0 0 0 0 0 0 0 0 0 0 -0 -1 -1 -1 -1 0 0 0 0 -0 -0 0 -0 -0 -0 0 -0 0 -0 0 1 0 -1 -1 -1 -1 -1 -0 -0 -0 -0 nan
nan 0 0 0 0 0 0 0 0 0 0 0 -0 0 0 0 -0 -0 0 0 -0 -0 -2 -2 -1 0 0 -0 0 0 0 0 -0 -0 -0 -0 0 0 0 0 0 -0 0 1 0 -0 -0 -0 -0 -0 -0 -0 0 nan
nan 0 0 0 0 0 0 0 0 0 -0 0 0 0 0 -0 -0 0 1 -0 -1 -2 -1 0 -0 0 0 0 0 0 0 0 -0 0 0 0 0 0 0 0 1 0 -1 0 0 -0 -0 -0 -0 0 -0 0 0 nan
nan 0 0 0 0 0 0 0 0 0 0 0 0 -0 -1 -1 1 2 0 -2 -1 0 0 0 0 0 0 0 -0 -0 -0 0 0 -0 0 0 0 0 0 0 1 0 -0 -0 -0 -0 0 -0 -0 -0 -0 0 0 nan
nan 0 0 0 0 0 0 -0 0 -0 1 1 0 -1 -1 1 0 0 -1 -6 -1 -0 0 0 0 1 0 -0 -0 0 0 0 -0 -0 -0 0 -0 -1 -1 1 1 -0 -0 -0 -0 -0 0 0 -0 -0 0 -0 0 nan
nan 0 -0 -0 -0 -0 0 -0 -0 0 0 -0 -1 -1 1 -0 0 -1 -1 -3 -0 -0 -0 0 -0 0 0 0 0 0 0 0 0 -0 0 1 1 0 -0 -1 -1 -1 -0 -0 -0 -1 -0 0 0 0 0 0 0 nan
nan -0 -0 -0 -0 -0 -0 -0 0 -0 -0 -1 -0 0 0 -0 -0 -2 -3 -0 0 0 -0 -0 -0 -0 -0 -0 -0 0 0 0 0 -0 -0 1 2 1 0 -0 -0 -0 -0 -0 -0 -0 -0 -0 0 0 0 0 0 nan
nan -0 -0 -0 -0 0 -0 0 0 -1 -1 -2 -0 0 -1 -1 -2 -3 -0 0 0 0 -0 -0 -0 -0 -0 -0 -0 0 1 1 0 -0 -0 -0 0 0 0 0 0 -0 -1 -1 -0 0 0 -0 -0 -0 0 0 0 nan
nan -0 -0 0 1 1 0 -1 -2 -2 -1 3 1 -1 -4 -3 0 0 -0 -0 0 0 -0 -0 -0 0 -0 -0 -0 0 0 1 0 0 0 -0 -1 -0 -0 -1 -0 0 -0 -0 -0 -0 -0 -0 -0 -0 -0 0 0 nan
nan -0 0 0 0 -1 -3 -1 -1 -0 0 0 0 1 0 -0 -0 0 0 0 0 -0 -0 -0 0 -0 -0 -0 -0 0 0 0 0 -0 -0 0 0 0 0 -0 -1 -0 -0 -0 -0 -0 -0 -0 -0 -0 -0 0 0 nan
nan 0 0 1 -1 -3 -0 0 0 0 -0 -0 1 1 -1 -1 0 1 -0 -0 -0 -0 1 0 -0 -0 -0 0 0 0 0 0 0 0 -0 -0 -0 0 -0 -0 -0 -0 -0 -0 -0 -0 -0 -0 -0 -0 -0 0 0 nan
nan 0 1 0 -3 -1 0 0 0 0 -0 0 -0 -0 1 1 0 1 1 0 0 -0 0 0 0 0 0 -0 -0 -0 -0 -0 -0 -0 -0 -0 -0 -0 -0 -0 -0 -0 -0 -0 -0 -0 -0 -0 -0 -0 -0 -0 -0 nan
nan nan nan nan nan nan nan nan nan nan nan nan nan nan nan nan nan nan nan nan nan nan nan nan nan nan nan nan nan nan nan nan nan nan nan nan nan nan nan nan nan nan nan nan nan nan nan nan nan nan nan nan nan nan
Wind_Speed
29 35 31 32 31 29 27 24 22 21 19 17 15 12 10 9 9 9 9 8 8 5 6 5 7 8 6 5 4 4 3 1 4 3 3 4 4 5 1 4 5 5 3 4 3 3 8 5 3 2 9 16 30 35
14 29 34 33 33 31 30 28 25 22 20 19 16 15 13 11 10 10 9 9 8 7 5 8 11 15 16 12 7 7 4 5 8 3 2 2 3 2 4 5 1 3 7 4 8 7 4 8 24 26 26 34 32 21
10 14 32 38 33 31 33 30 28 27 24 22 21 18 16 14 12 11 10 9 7 8 15 20 19 19 18 17 14 9 9 12 10 14 7 3 4 3 5 5 3 4 10 6 6 8 18 26 42 39 31 24 15 14
10 11 14 27 37 33 30 33 28 29 27 25 24 22 21 18 16 16 14 13 12 4 4 12 19 22 22 17 16 19 23 20 21 18 10 3 3 13 5 6 7 8 7 5 14 23 33 29 29 24 21 10 12 6
5 8 5 10 19 25 30 29 26 28 25 27 26 23 21 22 19 18 17 18 17 13 3 4 11 11 7 8 9 12 14 20 24 15 5 4 6 5 5 2 4 12 16 7 14 27 23 29 20 18 14 9 2 12
8 7 9 13 10 12 17 23 27 24 25 28 25 23 24 22 21 17 14 24 22 21 7 2 10 21 22 21 22 27 27 24 26 12 7 9 22 11 4 4 10 22 25 34 30 36 32 27 13 14 11 10 9 14
8 8 7 9 13 15 14 14 19 22 25 26 26 23 22 21 22 22 6 4 10 21 6 5 5 5 13 17 19 21 23 22 17 18 10 13 14 11 2 12 36 27 30 34 34 32 20 7 6 8 10 12 14 20
8 6 6 6 7 9 12 13 13 14 17 20 22 22 22 20 24 28 28 24 23 15 6 3 2 3 3 2 4 5 5 6 8 7 3 5 3 7 4 25 27 27 28 23 11 4 2 5 7 12 15 17 18 17
11 8 6 6 5 5 6 7 8 11 11 13 16 18 21 18 12 15 19 15 23 13 4 5 3 3 6 6 4 2 3 2 5 3 4 4 1 5 8 15 23 25 16 7 3 4 5 11 16 19 21 18 18 23
13 10 6 5 5 5 7 7 7 8 11 14 15 7 4 3 6 7 5 6 12 10 9 5 5 3 9 10 4 2 1 2 2 3 3 2 5 22 33 36 35 27 9 2 10 8 5 12 18 22 23 23 23 27
13 12 9 7 7 8 10 10 10 15 18 14 7 5 9 16 7 4 4 5 4 2 4 4 13 3 6 3 2 4 1 0 2 4 3 2 3 8 15 7 6 7 5 9 5 7 9 14 19 22 25 24 25 26
13 14 13 11 10 10 11 13 13 15 9 7 7 14 12 4 2 1 2 2 3 3 6 4 3 3 4 4 3 4 2 1 5 2 1 3 3 13 9 10 7 6 4 5 7 20 18 19 25 23 22 23 23 23
14 15 16 14 12 10 13 15 13 11 12 11 4 5 4 3 2 5 6 3 3 3 6 5 3 3 3 3 3 2 2 4 0 0 3 4 8 8 7 7 10 11 15 19 21 21 22 23 27 23 24 20 21 24
14 16 19 16 15 12 13 11 13 15 6 3 5 3 3 2 3 3 2 3 2 3 7 11 5 3 2 2 2 3 4 2 2 3 5 2 9 11 13 15 18 20 20 20 21 22 25 27 30 28 29 28 27 30
16 16 18 17 17 14 13 14 16 10 3 3 4 3 3 3 3 3 4 5 6 11 11 6 4 3 1 2 1 1 2 3 3 4 3 6 9 15 15 17 17 20 26 28 27 28 30 34 34 32 31 33 30 31
20 18 20 22 19 15 15 16 15 11 2 2 2 2 3 5 3 3 4 5 7 10 9 3 2 3 3 3 2 5 5 6 4 3 3 10 13 14 16 18 21 29 31 31 31 32 34 35 37 32 32 33 31 32
25 15 23 23 22 17 17 16 9 5 3 2 2 4 5 2 4 7 8 9 10 8 2 3 4 10 1 2 2 4 5 4 4 12 17 15 17 24 30 31 29 28 30 32 34 34 34 36 33 34 35 32 30 29
22 22 20 17 19 19 15 6 5 5 4 4 3 6 10 4 5 5 8 10 12 8 3 3 1 2 5 5 4 4 5 16 26 26 28 27 33 33 31 29 30 33 34 36 36 34 34 35 32 33 28 26 28 28
18 17 17 20 22 15 5 6 3 3 3 3 6 6 6 7 11 10 8 13 16 11 4 3 1 4 4 6 8 21 22 17 20 32 38 34 31 29 29 31 34 34 33 33 33 33 34 31 33 30 26 25 31 27
17 15 17 22 21 5 4 4 6 4 4 2 5 9 7 5 8 10 13 15 13 7 7 4 6 13 14 25 25 24 29 33 32 33 36 33 31 31 33 34 33 34 34 36 34 33 34 38 33 27 23 25 26 19
23 26 23 22 9 5 3 5 5 3 2 2 2 10 3 8 12 14 11 12 12 7 5 16 28 33 34 36 35 35 35 29 29 30 31 34 36 35 33 31 32 32 36 33 33 31 31 32 30 26 24 23 17 11
27 28 18 14 3 4 3 5 2 2 3 1 1 4 3 4 7 8 10 12 8 18 26 34 36 36 36 34 30 27 26 27 28 30 31 29 29 28 30 30 31 32 29 27 26 31 32 30 27 22 19 13 8 9
26 21 9 5 2 3 2 7 4 4 2 3 3 2 4 4 5 7 6 9 12 24 27 31 32 31 33 31 30 29 28 26 27 26 24 24 24 24 27 31 28 24 24 25 27 28 28 25 22 19 14 11 9 7
17 9 4 7 4 3 4 5 4 3 4 3 2 3 4 7 6 7 4 7 23 29 30 32 33 35 34 33 32 28 21 21 21 18 19 23 26 28 31 32 29 25 22 23 24 23 16 16 9 3 3 3 6 9
6 5 5 4 5 5 4 1 3 2 4 4 3 4 5 6 2 2 4 22 33 30 23 18 19 20 24 24 22 19 14 10 13 19 23 24 26 30 35 32 31 28 21 18 21 21 21 14 10 9 8 8 9 10
3 9 10 11 7 6 7 4 5 7 4 3 6 5 4 3 1 5 4 17 17 18 17 10 9 11 13 14 17 13 11 15 20 26 29 27 27 28 28 29 30 28 21 16 21 19 19 16 15 12 13 13 11 10
4 6 7 9 7 7 3 6 5 4 5 6 4 2 3 3 6 6 17 18 20 12 6 7 9 12 17 20 19 21 24 27 28 30 32 30 23 18 18 20 24 23 21 19 18 17 18 18 16 16 16 15 14 13
8 6 7 12 9 13 4 2 4 6 5 8 5 4 7 8 6 17 20 15 17 24 26 29 32 33 32 29 27 28 29 30 30 30 30 26 17 12 14 19 21 25 27 25 22 18 18 19 20 19 19 18 18 16
6 6 9 9 10 7 10 10 9 11 18 17 6 5 13 28 30 31 33 34 37 41 38 36 33 26 23 22 22 25 25 22 21 22 20 20 18 14 18 21 18 18 17 17 16 17 18 18 20 22 23 21 20 19
6 14 7 8 7 7 17 19 23 26 25 26 27 29 31 34 37 36 37 36 32 31 31 32 29 24 23 21 21 19 15 15 15 15 18 18 18 19 18 16 15 14 14 13 12 11 13 14 15 15 15 15 15 14
5 10 8 13 11 27 31 32 32 31 32 34 34 32 33 37 34 28 25 26 26 24 24 22 18 18 18 16 12 11 13 15 13 12 14 16 14 14 13 12 11 11 10 10 10 11 11 11 9 8 3 2 3 6
6 7 7 5 17 27 25 26 28 27 28 29 29 31 30 21 17 15 17 15 14 13 12 8 7 8 8 10 13 13 11 11 13 13 10 9 10 10 10 10 10 11 11 12 11 10 9 8 7 7 9 10 9 8
11 15 19 15 10 6 13 16 10 9 18 23 26 28 27 16 4 3 3 4 5 7 8 10 10 10 9 8 8 7 7 8 8 7 7 9 10 11 11 11 12 12 12 11 12 12 13 13 12 11 9 9 9 8
Wind_Direction
201 209 209 209 207 206 207 208 210 210 211 212 209 205 205 206 205 203 204 200 206 204 196 207 222 223 202 201 144 166 65 273 65 108 157 217 183 235 270 227 203 181 184 232 226 237 269 49 37 122 272 302 311 312
208 211 210 213 213 211 211 212 212 214 216 218 223 225 222 217 221 217 218 222 222 229 244 237 243 247 253 251 232 201 225 175 196 104 214 126 209 201 187 257 262 243 199 214 186 222 234 293 306 300 305 309 315 311
217 203 209 214 214 214 215 216 216 216 217 219 219 227 234 228 232 237 239 241 243 260 266 262 257 263 252 252 251 230 231 240 217 236 176 209 222 137 221 225 204 265 245 244 336 261 277 299 297 293 307 312 315 319
206 204 189 204 213 216 214 217 217 220 222 224 222 224 232 233 236 240 240 245 240 222 231 262 269 274 275 253 248 250 252 255 253 249 210 187 203 200 210 234 199 203 200 227 257 271 279 281 288 304 311 307 339 356
200 173 154 181 186 197 216 215 213 222 225 226 227 228 231 235 238 241 243 242 242 234 244 238 265 235 249 253 250 244 246 257 264 254 202 217 206 204 226 193 204 211 246 234 259 265 270 284 305 311 309 308 342 13
183 178 186 190 181 197 209 203 209 213 217 223 224 226 227 232 236 239 259 252 246 242 262 271 260 255 256 260 254 263 263 254 251 249 247 238 237 208 228 243 221 267 257 255 258 277 277 295 299 319 2 320 330 327
175 171 175 191 185 186 191 202 213 217 221 224 221 219 225 226 229 221 215 187 216 218 239 271 262 238 253 252 243 254 258 254 241 247 230 248 240 221 234 273 276 280 267 273 282 282 291 312 15 10 351 325 312 316
176 166 172 193 182 192 194 195 193 200 213 220 220 219 222 229 231 228 228 233 255 213 223 225 268 270 178 242 229 230 231 226 228 246 228 233 251 220 249 262 276 281 291 297 288 36 62 56 8 334 323 321 311 315
182 171 175 185 174 166 148 152 183 196 195 194 200 216 226 219 223 246 253 243 196 207 203 200 165 216 186 205 224 269 253 291 260 258 236 206 205 227 242 280 293 298 293 248 251 140 19 353 337 325 324 318 308 319
185 176 161 140 134 160 168 138 119 149 170 171 174 169 186 187 197 166 176 215 213 201 208 184 191 205 177 182 189 217 269 277 310 251 282 226 261 276 277 281 287 294 263 173 104 78 355 322 330 324 322 318 318 319
186 179 167 146 126 117 135 145 132 136 149 155 158 137 147 142 155 182 191 197 198 245 215 211 202 174 197 144 160 213 139 213 258 274 210 263 265 263 318 327 113 132 128 122 94 29 350 336 333 327 323 319 315 316
185 181 172 153 131 122 134 134 140 158 144 138 135 129 143 164 185 150 224 165 210 226 183 182 204 191 116 134 130 173 182 185 255 266 102 279 280 7 88 92 96 87 58 338 333 339 331 336 340 328 318 318 320 319
188 186 177 161 146 131 143 148 145 153 152 129 119 129 148 153 188 194 201 204 221 210 173 173 105 128 123 134 110 138 208 231 9 327 242 228 321 16 30 7 353 351 340 331 325 323 324 331 337 327 327 327 324 325
192 191 183 170 158 148 149 153 153 146 124 116 152 139 186 210 242 202 195 165 152 174 158 163 112 123 115 91 118 198 244 19 304 216 228 267 355 4 0 350 339 330 329 324 320 319 320 331 331 324 324 323 319 328
187 178 171 174 170 163 166 165 170 168 124 146 154 189 197 167 126 116 129 150 138 157 154 115 83 110 45 99 198 105 11 243 225 226 210 28 3 340 339 333 327 326 326 322 321 319 319 322 321 314 314 316 319 318
167 168 183 176 178 180 181 179 185 187 188 207 184 105 166 161 149 171 179 169 160 136 117 117 128 68 250 164 93 216 154 223 243 196 323 325 333 341 340 334 325 322 320 316 316 314 315 315 315 313 311 310 313 320
172 171 179 187 179 188 182 180 182 176 215 209 185 188 171 160 171 205 193 202 188 186 214 144 144 212 120 55 251 195 207 217 154 316 326 332 339 337 330 325 324 321 316 314 314 313 311 312 313 311 310 310 313 315
172 178 182 179 170 162 152 142 159 185 195 192 191 190 197 194 174 166 189 201 193 204 225 228 244 143 202 193 245 242 270 310 323 327 319 317 321 324 322 323 322 321 317 316 316 315 314 315 316 316 311 305 309 317
179 172 171 172 168 154 135 165 173 179 199 165 197 198 208 224 228 240 226 207 211 214 235 229 196 212 233 236 274 289 296 305 314 313 311 314 318 321 321 321 321 321 321 319 317 316 313 311 313 311 308 296 305 308
160 170 172 179 171 129 142 154 179 190 187 198 208 217 225 242 265 240 231 229 230 235 230 221 221 243 258 271 277 279 288 300 306 306 308 313 317 319 319 320 318 321 319 318 316 316 312 310 311 313 310 303 306 295
148 150 151 154 146 115 129 157 158 163 181 208 288 225 240 250 250 246 240 221 218 227 246 246 256 263 267 273 281 289 295 298 301 303 302 306 312 314 315 315 317 316 317 319 317 320 322 318 314 312 304 300 303 262
155 164 158 166 124 140 139 171 131 156 186 215 236 210 239 244 234 233 229 202 238 242 243 256 266 274 280 286 296 302 305 302 300 298 300 304 307 310 313 316 316 314 317 324 323 323 319 316 314 311 307 305 263 204
158 167 156 152 145 162 126 175 173 197 146 199 196 245 239 224 228 208 221 219 237 256 267 271 278 285 285 291 293 294 296 297 297 299 302 302 302 306 309 313 312 313 313 318 319 320 322 324 314 308 298 280 197 209
162 153 166 174 171 171 151 176 194 212 201 168 161 258 253 213 217 209 234 239 269 278 277 279 280 282 283 284 286 290 294 297 300 305 309 306 305 305 308 312 315 314 313 310 316 321 314 332 339 15 93 184 246 259
151 176 157 169 181 167 163 283 197 137 223 217 163 285 256 208 168 243 231 273 279 289 298 297 297 292 284 289 293 294 294 290 312 319 317 305 301 302 306 307 311 311 319 312 312 313 308 307 297 296 291 279 273 268
190 198 185 189 187 165 187 171 202 212 172 192 230 232 215 133 113 245 240 277 285 294 305 313 325 320 314 309 300 284 267 293 308 314 314 303 298 300 305 307 311 316 331 307 304 300 303 293 288 272 277 276 280 272
211 212 196 195 191 187 210 227 206 155 173 199 231 207 140 198 238 246 276 294 287 294 301 322 325 323 317 309 300 296 300 300 299 302 303 305 300 302 305 311 307 308 308 306 304 288 293 287 277 280 278 275 274 263
225 195 176 190 205 205 187 200 178 204 220 218 187 177 191 200 228 271 286 282 289 305 305 303 302 303 299 293 290 286 283 280 284 290 295 295 301 291 290 295 296 293 294 293 291 287 278 277 276 278 278 271 271 259
212 202 194 203 202 207 216 206 220 229 241 244 205 234 251 263 275 282 284 287 290 294 296 296 299 303 300 293 285 282 285 286 295 298 300 302 310 302 300 306 311 316 318 311 289 288 291 287 279 275 274 274 265 257
227 198 209 203 183 217 234 242 256 268 272 270 270 272 273 275 279 285 286 290 294 294 294 293 295 297 296 296 298 299 297 295 292 289 288 295 301 308 314 316 325 332 336 336 323 314 311 306 302 292 281 269 260 231
235 208 225 236 238 255 265 273 275 276 276 277 279 273 272 281 287 285 284 284 285 284 284 289 292 289 293 292 285 281 286 290 285 279 287 295 300 307 313 323 326 327 336 347 349 347 350 352 354 356 340 271 241 247
220 224 241 252 267 279 281 280 283 279 278 275 271 275 270 262 262 264 270 276 278 277 280 271 257 259 272 281 288 292 286 283 289 297 296 299 304 309 312 314 315 314 315 317 321 326 333 342 336 317 306 305 301 295
252 264 269 278 280 266 294 293 272 270 264 263 264 264 255 249 238 201 295 307 306 308 306 299 292 287 286 291 304 298 291 300 304 300 302 308 312 314 315 314 311 307 305 303 301 301 305 310 315 317 310 278 266 264
Height
1475 1481 1487 1493 1498 1503 1509 1513 1518 1521 1525 1529 1531 1534 1536 1539 1541 1543 1544 1546 1548 1549 1550 1551 1551 1552 1553 1553 1557 1557 1560 1558 1563 1569 1573 1574 1570 1569 1566 1557 1557 1560 1570 1564 1562 1559 1545 1519 1519 1528 1519 1509 1508 1501
1470 1474 1481 1487 1493 1498 1504 1509 1513 1518 1521 1525 1529 1532 1534 1536 1539 1541 1543 1544 1545 1548 1549 1548 1548 1549 1550 1551 1553 1554 1554 1553 1554 1562 1565 1567 1565 1563 1565 1554 1546 1551 1549 1550 1546 1534 1516 1516 1516 1514 1511 1505 1499 1497
1469 1471 1474 1481 1487 1493 1499 1504 1509 1513 1517 1522 1525 1528 1532 1534 1536 1539 1540 1541 1544 1545 1545 1544 1543 1545 1546 1547 1547 1551 1549 1550 1549 1548 1550 1554 1555 1552 1550 1545 1545 1540 1535 1535 1535 1514 1512 1513 1510 1508 1504 1500 1496 1494
1468 1469 1471 1475 1481 1487 1493 1499 1503 1508 1513 1517 1521 1524 1528 1530 1533 1536 1536 1538 1541 1543 1542 1538 1537 1539 1540 1541 1541 1543 1543 1543 1545 1544 1543 1547 1547 1542 1537 1533 1534 1533 1531 1526 1521 1513 1506 1508 1504 1502 1500 1496 1494 1491
1469 1468 1470 1473 1476 1480 1487 1492 1496 1502 1507 1512 1517 1520 1523 1526 1529 1531 1532 1533 1537 1542 1536 1533 1532 1534 1534 1535 1536 1537 1537 1539 1539 1538 1537 1536 1533 1534 1526 1526 1522 1521 1517 1521 1506 1503 1502 1496 1498 1496 1495 1492 1484 1488
1469 1470 1471 1473 1475 1478 1482 1485 1491 1496 1501 1507 1511 1515 1518 1521 1525 1527 1527 1528 1531 1535 1533 1529 1526 1525 1528 1529 1529 1528 1529 1531 1532 1530 1525 1522 1523 1525 1521 1512 1506 1506 1507 1504 1499 1499 1496 1495 1493 1492 1489 1490 1486 1484
1469 1471 1472 1476 1477 1478 1479 1482 1487 1491 1495 1501 1506 1510 1514 1516 1519 1521 1522 1523 1525 1529 1529 1526 1520 1519 1519 1521 1522 1522 1522 1522 1524 1523 1517 1517 1515 1518 1511 1502 1491 1500 1499 1496 1494 1493 1492 1491 1490 1489 1490 1490 1485 1482
1468 1469 1472 1475 1475 1476 1478 1481 1483 1486 1491 1495 1500 1506 1510 1511 1512 1514 1515 1519 1523 1526 1523 1520 1518 1519 1517 1519 1520 1518 1517 1517 1515 1513 1511 1509 1509 1509 1503 1491 1491 1490 1490 1490 1490 1488 1489 1490 1491 1491 1488 1483 1479 1476
1468 1470 1474 1475 1474 1476 1476 1477 1480 1484 1489 1492 1496 1501 1505 1506 1507 1508 1512 1515 1515 1518 1516 1514 1515 1516 1515 1516 1516 1518 1517 1515 1512 1509 1508 1509 1504 1499 1490 1489 1487 1488 1488 1486 1486 1488 1490 1490 1487 1483 1481 1476 1476 1471
1467 1470 1473 1474 1475 1475 1474 1477 1479 1483 1487 1492 1496 1499 1501 1504 1508 1511 1512 1512 1510 1508 1509 1507 1511 1511 1514 1515 1515 1518 1515 1515 1511 1508 1507 1504 1494 1491 1487 1485 1484 1483 1484 1484 1483 1485 1485 1485 1482 1480 1475 1472 1468 1465
1466 1469 1472 1474 1476 1475 1475 1476 1480 1485 1488 1493 1495 1498 1502 1505 1509 1509 1510 1509 1507 1507 1506 1505 1506 1507 1508 1511 1512 1514 1513 1514 1513 1511 1508 1507 1499 1488 1486 1483 1482 1482 1483 1484 1484 1484 1483 1481 1477 1473 1469 1466 1463 1459
1464 1468 1473 1475 1476 1475 1477 1479 1482 1486 1489 1492 1494 1498 1503 1506 1507 1509 1508 1508 1506 1504 1503 1503 1505 1505 1506 1508 1509 1512 1514 1515 1511 1508 1508 1500 1497 1490 1487 1486 1486 1485 1485 1485 1483 1481 1481 1477 1474 1469 1465 1460 1457 1454
1463 1467 1471 1473 1475 1476 1478 1482 1485 1488 1489 1492 1495 1498 1500 1504 1505 1506 1504 1504 1504 1500 1500 1502 1503 1504 1506 1508 1510 1511 1511 1509 1505 1506 1502 1501 1494 1493 1493 1492 1489 1487 1486 1484 1482 1478 1475 1471 1468 1464 1459 1456 1452 1447
1461 1466 1468 1471 1474 1477 1479 1483 1486 1488 1490 1493 1495 1498 1499 1503 1501 1499 1500 1499 1500 1499 1500 1502 1503 1505 1506 1508 1509 1510 1509 1508 1506 1504 1506 1496 1494 1493 1493 1492 1489 1485 1482 1479 1475 1471 1467 1464 1461 1458 1453 1450 1446 1441
1459 1463 1465 1470 1473 1476 1480 1485 1488 1490 1490 1492 1492 1496 1498 1497 1497 1498 1498 1499 1499 1499 1500 1503 1504 1505 1507 1509 1509 1509 1512 1504 1500 1502 1494 1493 1493 1492 1490 1489 1486 1481 1478 1474 1469 1465 1462 1458 1455 1451 1448 1443 1438 1435
1459 1463 1465 1469 1473 1476 1481 1485 1488 1491 1490 1492 1491 1493 1494 1495 1496 1496 1497 1499 1501 1500 1502 1503 1505 1509 1509 1508 1511 1511 1512 1506 1496 1487 1489 1490 1489 1487 1485 1482 1480 1476 1472 1468 1464 1460 1456 1452 1448 1443 1439 1436 1433 1429
1457 1459 1463 1468 1473 1477 1481 1485 1489 1490 1491 1490 1490 1490 1491 1492 1491 1494 1497 1498 1501 1503 1503 1501 1507 1502 1502 1510 1509 1497 1497 1487 1483 1485 1485 1484 1483 1481 1479 1475 1471 1468 1465 1461 1457 1452 1448 1444 1440 1436 1431 1429 1426 1423
1455 1458 1464 1468 1472 1476 1481 1484 1487 1488 1488 1489 1490 1490 1490 1491 1491 1494 1495 1496 1499 1501 1500 1499 1496 1499 1503 1503 1496 1483 1481 1482 1480 1480 1479 1478 1477 1475 1472 1468 1464 1461 1457 1452 1448 1443 1439 1435 1431 1427 1424 1422 1419 1416
1456 1461 1465 1470 1473 1477 1482 1485 1487 1486 1486 1487 1488 1488 1488 1489 1489 1491 1493 1494 1495 1498 1499 1495 1495 1496 1489 1480 1479 1478 1479 1480 1478 1476 1474 1471 1470 1467 1464 1461 1457 1453 1449 1444 1440 1436 1431 1428 1425 1421 1418 1415 1412 1409
1459 1463 1467 1470 1475 1478 1481 1483 1484 1484 1484 1485 1485 1486 1487 1486 1487 1489 1491 1492 1495 1495 1492 1488 1482 1478 1478 1475 1476 1476 1476 1476 1474 1470 1465 1462 1461 1460 1457 1454 1450 1445 1440 1435 1431 1427 1423 1418 1415 1413 1410 1408 1405 1403
1460 1464 1467 1471 1475 1477 1479 1479 1481 1481 1482 1482 1482 1483 1484 1484 1484 1485 1486 1488 1490 1487 1483 1479 1475 1473 1473 1471 1472 1472 1470 1469 1466 1465 1461 1456 1454 1453 1450 1446 1443 1439 1434 1428 1424 1419 1416 1411 1407 1405 1403 1400 1399 1398
1459 1464 1468 1472 1473 1475 1476 1477 1479 1479 1481 1481 1482 1482 1482 1480 1480 1480 1481 1482 1479 1477 1475 1469 1467 1466 1465 1465 1464 1464 1462 1461 1459 1458 1456 1453 1449 1446 1443 1440 1436 1431 1427 1423 1420 1415 1410 1406 1402 1399 1396 1395 1395 1396
1461 1466 1469 1471 1473 1474 1477 1477 1479 1479 1480 1480 1480 1480 1478 1477 1476 1476 1475 1472 1469 1466 1464 1462 1460 1460 1458 1457 1456 1456 1456 1454 1451 1450 1448 1446 1443 1441 1437 1434 1430 1426 1421 1418 1415 1411 1405 1400 1396 1393 1391 1392 1394 1396
1464 1467 1469 1469 1471 1474 1475 1476 1477 1477 1477 1478 1479 1479 1474 1472 1471 1470 1468 1462 1460 1457 1456 1455 1454 1451 1450 1449 1448 1447 1447 1447 1445 1443 1442 1439 1436 1434 1431 1427 1423 1420 1417 1413 1410 1406 1402 1399 1396 1394 1393 1394 1394 1394
1465 1468 1469 1469 1470 1472 1473 1474 1474 1475 1477 1474 1476 1474 1467 1466 1468 1468 1462 1454 1450 1449 1447 1447 1446 1444 1442 1441 1440 1440 1440 1440 1438 1437 1436 1433 1430 1426 1423 1419 1416 1413 1411 1408 1405 1402 1400 1398 1396 1394 1393 1392 1392 1392
1462 1461 1463 1463 1466 1468 1468 1474 1473 1470 1470 1472 1469 1463 1462 1462 1468 1462 1451 1445 1445 1444 1443 1442 1440 1439 1438 1437 1435 1435 1435 1434 1432 1430 1428 1426 1423 1420 1416 1412 1407 1404 1406 1403 1401 1398 1395 1394 1393 1391 1390 1390 1389 1388
1458 1456 1456 1458 1459 1461 1462 1461 1460 1461 1466 1466 1461 1459 1460 1462 1461 1447 1442 1441 1439 1440 1439 1438 1437 1436 1435 1434 1432 1431 1429 1427 1425 1423 1420 1417 1415 1414 1412 1408 1404 1402 1400 1397 1395 1393 1391 1389 1388 1387 1386 1385 1384 1384
1450 1450 1452 1453 1454 1455 1456 1456 1457 1457 1453 1451 1451 1455 1453 1450 1444 1439 1439 1438 1436 1435 1434 1433 1431 1430 1427 1425 1424 1422 1421 1419 1417 1415 1412 1410 1409 1407 1406 1404 1401 1397 1394 1391 1389 1387 1385 1384 1383 1382 1381 1379 1379 1379
1446 1446 1448 1448 1450 1450 1449 1448 1445 1442 1442 1441 1441 1440 1436 1435 1434 1433 1432 1432 1430 1428 1425 1422 1420 1420 1417 1416 1415 1413 1412 1410 1409 1406 1405 1403 1402 1402 1400 1397 1394 1390 1387 1383 1382 1381 1379 1377 1376 1375 1374 1373 1373 1373
1441 1442 1442 1442 1443 1442 1437 1437 1434 1434 1435 1434 1432 1429 1428 1425 1425 1425 1423 1421 1419 1417 1415 1414 1412 1410 1409 1408 1407 1406 1405 1405 1404 1403 1401 1399 1398 1396 1394 1392 1389 1387 1384 1381 1378 1377 1375 1372 1370 1368 1367 1366 1367 1368
1435 1435 1435 1434 1432 1430 1429 1429 1429 1428 1427 1425 1423 1421 1418 1416 1416 1414 1413 1411 1410 1408 1407 1406 1405 1404 1403 1402 1401 1401 1401 1400 1399 1398 1397 1396 1394 1392 1391 1389 1387 1385 1383 1381 1379 1377 1374 1372 1370 1369 1368 1367 1368 1368
1431 1430 1429 1429 1426 1425 1425 1423 1420 1418 1416 1414 1412 1410 1408 1408 1408 1407 1404 1404 1403 1402 1401 1400 1399 1399 1399 1398 1397 1397 1396 1396 1395 1394 1394 1393 1391 1390 1388 1387 1385 1383 1381 1380 1378 1376 1374 1373 1371 1370 1369 1368 1367 1367
1427 1426 1425 1423 1420 1418 1418 1417 1412 1408 1406 1403 1400 1398 1398 1401 1401 1403 1402 1401 1400 1399 1398 1397 1397 1396 1395 1395 1394 1394 1393 1393 1392 1392 1391 1390 1389 1388 1386 1384 1383 1381 1379 1378 1376 1374 1372 1371 1369 1368 1367 1366 1365 1365